1328572830301,52.1527
1328572890301,52.0408
1328572950301,52.0975
1328573010301,52.1452
1328573070301,52.3311
1328573130301,52.4176
1328573190301,52.1324
1328573250301,52.1907
1328573310301,52.0826
1328573370301,52.2079
1328573430301,52.2422
1328573490301,52.0662
1328573550301,52.1367
1328573610301,52.1635
1328573670301,52.1228
1328573730301,52.1206
1328573790301,52.0413
1328573850301,52.2125
1328573910301,52.1465
1328573970301,52.1117
1328574030301,52.1197
1328574090301,52.0662
1328574150301,52.0768
1328574210301,51.9986
1328574270301,52.1324
1328574330301,52.1517
1328574390301,52.1934
1328574450301,52.0695
1328574510301,52.0154
1328574570301,52.4509
1328574630301,52.1291
1328574690301,52.0522
1328574750301,52.0733
1328574810301,51.9258
1328574870301,52.0138
1328574930301,52.0038
1328574990301,52.1032
1328575050301,52.1463
1328575110301,52.0174
1328575170301,52.1081
1328575230301,52.1723
1328575290301,52.0435
1328575350301,52.1321
1328575410301,52.1460
1328575470301,52.2239
1328575530301,52.2161
1328575590301,52.2625
1328575650301,52.1057
1328575710301,52.1731
1328575770301,52.2639
1328575830301,52.1597
1328575890301,52.0848
1328575950301,52.0517
1328576010301,52.1293
1328576070301,52.0302
1328576130301,52.0613
1328576190301,52.1784
1328576250301,52.1575
1328576310301,52.1067
1328576370301,52.1522
1328576430312,52.0687
1328576490312,52.0687
1328576550312,51.9214
1328576610312,52.0309
1328576670312,52.1539
1328576730312,52.0832
1328576790312,52.0856
1328576850312,52.0002
1328576910312,51.9169
1328576970312,52.0344
1328577030312,51.9429
1328577090312,52.0035
1328577150312,51.9884
1328577210312,52.1289
1328577270312,51.9750
1328577330312,52.1485
1328577390312,51.9666
1328577450312,52.1607
1328577510312,52.1025
1328577570312,51.9363
1328577630312,52.0793
1328577690312,51.9560
1328577750312,52.1679
1328577810312,52.0967
1328577870312,52.1084
1328577930312,52.0548
1328577990312,51.9579
1328578050312,52.1392
1328578110312,52.1127
1328578170312,52.0183
1328578230312,52.0628
1328578290312,52.0407
1328578350312,52.1513
1328578410312,52.0771
1328578470312,52.0929
1328578530312,52.1113
1328578590312,52.1221
1328578650312,52.1330
1328578710312,52.0989
1328578770312,52.1299
1328578830312,52.3028
1328578890312,52.2287
1328578950312,52.2770
1328579010312,52.1867
1328579070312,52.2419
1328579130312,52.1329
1328579190312,52.1621
1328579250312,51.9990
1328579310312,52.1513
1328579370312,52.1881
1328579430312,52.1966
1328579490312,52.1019
1328579550312,52.1678
1328579610312,52.2702
1328579670312,52.1510
1328579730312,52.2623
1328579790312,52.1008
1328579850312,52.0103
1328579910312,52.1349
1328579970312,52.1325
1328580030322,52.2768
1328580090322,52.2192
1328580150322,52.4113
1328580210322,52.2930
1328580270322,52.3901
1328580330322,52.1072
1328580390322,52.2538
1328580450322,52.2021
1328580510322,52.0863
1328580570322,52.2025
1328580630322,52.0623
1328580690322,52.1290
1328580750322,52.0662
1328580810322,52.1505
1328580870322,52.0088
1328580930322,52.0803
1328580990322,52.0754
1328581050322,51.9917
1328581110322,52.0577
1328581170322,52.0599
1328581230322,52.0011
1328581290322,52.0074
1328581350322,51.9787
1328581410322,51.9724
1328581470322,52.0747
1328581530322,51.9347
1328581590322,51.9333
1328581650322,52.0192
1328581710322,52.0409
1328581770322,52.1896
1328581830322,52.0055
1328581890322,52.0314
1328581950322,52.0966
1328582010322,52.1522
1328582070322,51.9581
1328582130322,51.9869
1328582190322,51.9894
1328582250322,51.9769
1328582310322,52.0588
1328582370322,51.9687
1328582430322,51.9486
1328582490322,52.0674
1328582550322,52.0454
1328582610322,51.9981
1328582670322,51.9976
1328582730322,51.9531
1328582790322,51.9893
1328582850322,51.9251
1328582910322,51.8698
1328582970322,51.9307
1328583030322,51.9516
1328583090322,51.9975
1328583150322,52.1159
1328583210322,52.0038
1328583270322,52.0080
1328583330322,52.0050
1328583390322,51.8898
1328583450322,51.9742
1328583510322,51.9612
1328583570322,52.0232
1328583630333,51.9745
1328583690333,51.9572
1328583750333,51.9738
1328583810333,51.9349
1328583870333,51.8309
1328583930333,51.9110
1328583990333,51.9511
1328584050333,52.0484
1328584110333,51.9803
1328584170333,51.9492
1328584230333,51.9445
1328584290333,51.7727
1328584830333,51.7302
1328584890333,51.8858
1328584950333,51.8378
1328585010333,51.8230
1328585070333,51.8922
1328585130333,51.7948
1328585190333,51.6877
1328585250333,51.9219
1328585310333,51.7720
1328585370333,51.7142
1328585430333,51.8361
1328585490333,51.7408
1328585550333,51.8679
1328585610333,51.7037
1328585670333,51.9059
1328585730333,51.6447
1328585790333,51.7003
1328585850333,51.7847
1328585910333,51.8175
1328585970333,51.7996
1328586030333,51.6336
1328586090333,51.6963
1328586150333,51.6619
1328586210333,51.7663
1328586270333,51.7451
1328586330333,52.1802
1328586390333,51.7610
1328586450333,51.8201
1328586510333,51.6599
1328586570333,51.8584
1328586630333,51.6359
1328586690333,51.6807
1328586750333,51.6560
1328586810333,51.7524
1328586870333,51.6879
1328586930333,51.6992
1328586990333,51.6456
1328587050333,51.6341
1328587110333,51.9386
1328587170333,51.7104
1328587230344,51.8245
1328587290344,51.8580
1328587350344,51.7483
1328587410344,51.6245
1328587470344,51.8152
1328587530344,51.7506
1328587590344,52.1533
1328587650344,51.8333
1328587710344,51.6389
1328587770344,51.7946
1328587830344,51.8256
1328587890344,51.8413
1328587950344,51.8453
1328588010344,51.9366
1328588070344,51.8720
1328588130344,51.6799
1328588190344,51.7686
1328588250344,51.7310
1328588310344,51.6246
1328588370344,51.8209
1328588430344,51.7467
1328588490344,51.9201
1328588550344,51.6765
1328588610344,51.7516
1328588670344,51.8093
1328588730344,52.0185
1328588790344,51.6812
1328588850344,51.9445
1328588910344,51.8330
1328588970344,51.8730
1328589030344,51.8988
1328589090344,51.9412
1328589150344,51.8077
1328589210344,51.8950
1328589270344,52.0057
1328589330344,51.7696
1328589390344,51.8590
1328589450344,51.7642
1328589510344,51.8835
1328589570344,51.9275
1328589630344,52.0641
1328589690344,52.0440
1328589750344,52.0053
1328589810344,51.8322
1328589870344,51.9283
1328589930344,52.0333
1328589990344,51.8847
1328590050344,52.0528
1328590110344,51.9426
1328590170344,52.0121
1328590230344,51.9897
1328590290344,51.9441
1328590350344,52.0074
1328590410344,52.1027
1328590470344,51.9750
1328590530344,51.8570
1328590590344,52.0732
1328590650344,51.9532
1328590710344,51.9511
1328590770344,52.1073
1328590830355,52.0174
1328590890355,51.9379
1328590950355,51.9150
1328591010355,51.9372
1328591070355,52.0569
1328591130355,51.9773
1328591190355,51.9668
1328591250355,52.0182
1328591310355,52.0139
1328591370355,51.9127
1328591430355,52.0008
1328591490355,52.0186
1328591550355,52.0325
1328591610355,52.2733
1328591670355,52.1295
1328591730355,52.0796
1328591790355,52.0262
1328591850355,52.1416
1328591910355,52.0957
1328591970355,52.2079
1328592030355,52.1480
1328592090355,52.1701
1328592150355,52.0462
1328592210355,52.1835
1328592270355,52.3312
1328592330355,52.2910
1328592390355,52.1428
1328592450355,52.2565
1328592510355,52.3867
1328592570355,52.2069
1328592630355,52.1772
1328592690355,52.0640
1328592750355,52.1753
1328592810355,52.2854
1328592870355,52.1731
1328592930355,52.1583
1328592990355,52.2192
1328593050355,52.3765
1328593110355,52.3060
1328593170355,52.1546
1328593230355,52.1996
1328593290355,52.2147
1328593350355,52.1439
1328593410355,52.0668
1328593470355,52.2547
1328593530355,52.0459
1328593590355,51.9473
1328593650355,52.0882
1328593710355,52.1945
1328593770355,51.9238
1328593830355,51.9462
1328593890355,52.0213
1328593950355,52.1256
1328594010355,52.1027
1328594070355,52.0878
1328594130355,51.9690
1328594190355,52.0092
1328594250355,52.0117
1328594310355,51.9749
1328594370355,52.0061
1328594430367,51.9201
1328594490367,52.1056
1328594550367,52.0805
1328594610367,52.0201
1328594670367,51.9535
1328594730367,51.9306
1328594790367,52.0653
1328594850367,51.8517
1328594910367,51.9751
1328594970367,51.8787
1328595030367,51.7900
1328595090367,51.9015
1328595150367,51.8879
1328595210367,51.9066
1328595270367,51.8489
1328595330367,51.9996
1328595390367,51.9228
1328595450367,51.9826
1328595510367,51.9022
1328595570367,51.9011
1328595630367,52.0151
1328595690367,51.8631
1328595750367,52.1105
1328595810367,51.8946
1328595870367,51.8421
1328595930367,51.9058
1328595990367,51.9796
1328596050367,51.6992
1328596110367,51.9244
1328596170367,51.9132
1328596230367,52.0360
1328596290367,51.8836
1328596350367,51.8420
1328596410367,51.8377
1328596470367,51.9949
1328596530367,51.8552
1328596590367,51.8022
1328596650367,51.8040
1328596710367,51.9219
1328596770367,51.7872
1328596830367,51.8993
1328596890367,51.8416
1328596950367,51.9008
1328597010367,51.9504
1328597070367,51.7908
1328597130367,51.8673
1328597190367,51.9167
1328597250367,52.0787
1328597310367,51.9538
1328597370367,51.9666
1328597430367,51.9681
1328597490367,51.7853
1328597550367,51.9238
1328597610367,51.7534
1328597670367,51.8798
1328597730367,51.7547
1328597790367,51.9330
1328597850367,51.7944
1328597910367,52.0455
1328597970367,51.8705
1328598030378,51.8378
1328598090378,51.8194
1328598150378,51.8836
1328598210378,51.8173
1328598270378,51.9657
1328598330378,51.8705
1328598390378,51.9477
1328598450378,51.8784
1328598510378,51.6996
1328598570378,51.6706
1328598630378,51.8223
1328598690378,51.9082
1328598750378,51.7245
1328598810378,51.8017
1328598870378,51.8739
1328598930378,51.7446
1328598990378,51.7243
1328599050378,51.8797
1328599110378,51.8789
1328599170378,51.7395
1328599230378,51.7302
1328599290378,51.9238
1328599350378,51.6763
1328599410378,51.8667
1328599470378,51.8670
1328599530378,51.7817
1328599590378,51.7458
1328599650378,51.6876
1328599710378,51.7122
1328599770378,51.7460
1328599830378,51.7565
1328599890378,51.6724
1328599950378,51.7219
1328600010378,51.7130
1328600070378,51.8330
1328600130378,51.8027
1328600190378,51.6008
1328600250378,51.7156
1328600310378,51.7555
1328600370378,51.5994
1328600430378,51.7315
1328600490378,51.7268
1328600550378,51.6085
1328600610378,51.9057
1328600670378,51.7490
1328600730378,51.6898
1328600790378,51.7252
1328600850378,51.7632
1328600910378,51.7068
1328600970378,51.7439
1328601030378,51.9839
1328601090378,51.7429
1328601150378,51.9274
1328601210378,51.7963
1328601270378,51.6241
1328601330378,51.5772
1328601390378,51.6715
1328601450378,51.6168
1328601510378,51.6494
1328601570378,51.7460
1328601630389,51.7439
1328601690389,51.7366
1328601750389,51.6638
1328601810389,51.8624
1328601870389,51.8160
1328601930389,51.7874
1328601990389,51.7490
1328602050389,51.8860
1328602110389,51.6688
1328602170389,51.7458
1328602230389,51.7019
1328602290389,51.8596
1328602350389,51.8680
1328602410389,51.8326
1328602470389,51.8854
1328602530389,51.8928
1328602590389,51.8411
1328602650389,51.8286
1328602710390,51.8890
1328602770390,52.0234
1328602830390,51.8479
1328602890389,51.8414
1328602950389,51.8410
1328603010389,51.9128
1328603070389,51.9745
1328603130389,51.8705
1328603190389,51.8646
1328603250389,51.9446
1328603310389,51.8610
1328603370389,51.8403
1328603430389,51.9028
1328603490389,51.8653
1328603550389,51.8641
1328603610389,51.9167
1328603670389,52.0249
1328603730389,51.9696
1328603790389,52.0011
1328603850389,51.9183
1328603910389,51.8254
1328603970389,51.8815
1328604030389,51.9238
1328604090390,51.8516
1328604150390,52.0231
1328604210389,51.7174
1328604270389,51.9510
1328604330389,51.9011
1328604390389,51.8657
1328604450389,51.8231
1328604510389,51.9612
1328604570389,52.0588
1328604630389,52.0333
1328604690389,52.0826
1328604750389,51.8154
1328604810389,51.9366
1328604870389,51.9116
1328604930389,52.0450
1328604990389,51.8557
1328605050389,52.0530
1328605110389,51.9572
1328605170389,52.0696
1328605230401,52.0832
1328605290401,51.9650
1328605350401,52.0992
1328605410401,52.0913
1328605470401,51.9479
1328605530401,52.1129
1328605590401,52.1866
1328605650401,52.2339
1328605710401,51.9377
1328605770401,51.9698
1328605830401,51.9108
1328605890401,52.0054
1328605950401,52.1373
1328606010401,52.0075
1328606070401,52.0260
1328606130401,52.0615
1328606190401,51.9381
1328606250401,52.0835
1328606310401,52.0478
1328606370401,52.0696
1328606430401,51.9628
1328606490401,51.9830
1328606550401,51.7735
1328606610401,51.9267
1328606670401,52.0524
1328606730401,51.8188
1328606790401,51.8255
1328606850401,51.9753
1328606910401,52.0431
1328606970401,51.9541
1328607030401,51.8755
1328607090401,52.0317
1328607150401,52.0044
1328607210401,51.8449
1328607270401,51.9085
1328607330401,52.0575
1328607390401,51.9552
1328607450401,52.0647
1328607510401,51.9590
1328607570401,51.8795
1328607630401,51.7379
1328607690401,51.8091
1328607750401,51.9174
1328607810401,51.9265
1328607870401,51.7928
1328607930401,51.8031
1328607990401,51.7564
1328608050401,51.8173
1328608110401,51.9334
1328608170401,51.7857
1328608230401,51.8413
1328608290401,51.7498
1328608350401,51.7492
1328608410401,51.7351
1328608470401,51.6110
1328608530401,51.8533
1328608590401,51.8038
1328608650401,51.6761
1328608710401,51.6442
1328608770401,51.6861
1328608830413,51.8394
1328608890413,51.8449
1328608950413,51.8717
1328609010413,51.7929
1328609070413,51.8022
1328609130413,51.7068
1328609190413,51.7299
1328609250413,51.7807
1328609310413,51.7387
1328609370413,51.7500
1328609430413,51.7180
1328609490413,51.7149
1328609550413,51.7415
1328609610413,51.7022
1328609670413,51.6950
1328609730413,51.7033
1328609790413,51.6644
1328609850413,51.7574
1328609910413,51.7037
1328609970413,51.7599
1328610030413,51.7342
1328610090413,51.5818
1328610150413,51.6545
1328610210413,51.9745
1328610270413,51.7151
1328610330413,51.7987
1328610390413,51.6876
1328610450413,51.6382
1328610510413,51.8093
1328610570413,51.7569
1328610630413,51.7262
1328610690413,51.8289
1328610750413,51.7337
1328610810413,51.7273
1328610870413,51.7854
1328610930413,51.7426
1328610990413,51.7502
1328611050413,51.8505
1328611110413,51.7524
1328611170413,51.9253
1328611230413,51.6835
1328611290413,51.6299
1328611350413,51.8666
1328611410413,51.6637
1328611470413,51.8754
1328611530413,51.8396
1328611590413,51.6856
1328611650413,51.5778
1328611710413,51.8591
1328611770413,51.7601
1328611830413,51.7001
1328611890413,51.8301
1328611950413,51.8157
1328612010413,51.6885
1328612070413,51.6871
1328612130413,51.8032
1328612190413,51.7724
1328612250413,51.8283
1328612310413,51.8529
1328612370413,52.0037
1328612430424,52.1807
1328612490424,52.4344
1328612550424,52.4015
1328612610424,52.3625
1328612670424,52.1815
1328612730424,52.2716
1328612790424,52.2085
1328612850424,52.1042
1328612910424,51.9466
1328612970424,52.1852
1328613030424,52.1129
1328613090424,52.1236
1328613150424,52.0912
1328613210424,51.9957
1328613270424,51.9368
1328613330424,51.9431
1328613390424,51.8183
1328613450424,51.8129
1328613510424,51.8862
1328613570424,51.8508
1328613630424,51.8240
1328613690424,51.8932
1328613750424,51.7977
1328613810424,51.9702
1328613870424,51.9883
1328613930424,51.8034
1328613990424,51.9178
1328614050424,51.9713
1328614110424,51.7854
1328614170424,51.8737
1328614230424,51.8390
1328614290424,51.8817
1328614350424,51.7338
1328614410424,51.9523
1328614470424,51.8193
1328614530424,51.8804
1328614590424,51.9093
1328614650424,51.7125
1328614710424,51.8586
1328614770424,51.8258
1328614830424,51.9194
1328614890424,51.7460
1328614950424,51.8347
1328615010424,51.8806
1328615070424,51.9915
1328615130424,51.9018
1328615190424,51.9510
1328615250424,51.8852
1328615310424,51.9130
1328615370424,51.9759
1328615430424,51.9230
1328615490424,51.8971
1328615550424,51.9562
1328615610424,52.0775
1328615670424,51.9037
1328615730424,51.9491
1328615790424,51.9451
1328615850424,51.8486
1328615910424,51.9798
1328615970424,51.9888
1328616030436,51.9662
1328616090436,51.9948
1328616150436,52.1044
1328616210436,52.0231
1328616270436,52.1093
1328616330436,52.0410
1328616390436,51.9429
1328616450436,52.0048
1328616510436,52.1306
1328616570436,52.0996
1328616630436,52.2341
1328616690436,52.3484
1328616750436,52.1246
1328616810436,52.2889
1328616870436,52.3022
1328616930436,52.4029
1328616990436,52.3991
1328617050436,52.3215
1328617110436,52.3055
1328617170436,52.3923
1328617230436,52.1568
1328617290436,52.4552
1328617350436,52.1626
1328617410436,52.1266
1328617470436,52.1185
1328617530436,52.1840
1328617590436,52.2921
1328617650436,52.2117
1328617710436,52.2826
1328617770436,52.1639
1328617830436,52.1981
1328617890436,52.1808
1328617950436,52.2032
1328618010436,52.1925
1328618070436,52.2142
1328618130436,52.1260
1328618190436,52.0677
1328618250436,52.1038
1328618310436,52.2449
1328618370436,52.0091
1328618430436,52.3308
1328618490436,52.1612
1328618550436,52.1072
1328618610436,52.2401
1328618670436,52.0285
1328618730436,52.2895
1328618790436,52.1740
1328618850436,52.1163
1328618910436,52.0489
1328618970436,52.1714
1328619030436,52.3213
1328619090436,51.9537
1328619150436,52.0428
1328619210436,52.1097
1328619270436,52.0485
1328619330436,52.0030
1328619390436,52.0752
1328619450436,52.1216
1328619510436,52.0896
1328619570436,52.0368
1328619630448,52.0848
1328619690448,52.0233
1328619750448,52.2156
1328619810448,52.1318
1328619870448,52.1387
1328619930448,52.0088
1328619990448,52.0500
1328620050448,52.1791
1328620110448,52.1098
1328620170448,52.1217
1328620230448,52.2339
1328620290448,51.9945
1328620350448,52.0867
1328620410448,52.1455
1328620470448,52.1876
1328620530448,52.0488
1328620590448,52.2131
1328620650448,51.9852
1328620710448,51.9414
1328620770448,51.9980
1328620830448,52.0314
1328620890448,51.9009
1328620950448,51.8990
1328621010448,51.9092
1328621070448,52.0714
1328621130448,51.8198
1328621190448,51.9847
1328621250448,51.8006
1328621310448,51.8884
1328621370448,51.9416
1328621430448,51.9310
1328621490448,52.0169
1328621550448,51.7255
1328621610448,51.8480
1328621670448,51.7806
1328621730448,51.8390
1328621790448,51.8137
1328621850448,51.8190
1328621910448,51.7409
1328621970448,51.7983
1328622030448,51.9518
1328622090448,51.7662
1328622150448,51.7007
1328622210448,51.8095
1328622270448,51.8192
1328622330448,51.7757
1328622390448,51.5829
1328622450448,51.7073
1328622510448,51.8560
1328622570448,51.8081
1328622630448,51.7908
1328622690448,51.7199
1328622750448,51.7383
1328622810448,51.7305
1328622870448,51.7703
1328622930448,51.8403
1328622990448,51.6334
1328623050448,51.7395
1328623110448,51.6390
1328623170448,51.7510
1328623230459,51.7695
1328623290459,51.5547
1328623350459,51.8101
1328623410459,51.7510
1328623470459,51.6501
1328623530459,51.5856
1328623590459,51.6494
1328623650459,51.5662
1328623710459,51.7051
1328623770459,51.6968
1328623830459,51.8149
1328623890459,51.6576
1328623950459,51.5108
1328624010459,51.7184
1328624070459,51.7709
1328624130459,51.7180
1328624190459,51.6383
1328624250459,51.5885
1328624310459,51.7129
1328624370459,51.7932
1328624430459,51.7186
1328624490459,51.7242
1328624550459,51.6733
1328624610459,51.8022
1328624670459,51.7896
1328624730459,51.6324
1328624790459,51.6757
1328624850459,51.6931
1328624910459,51.5871
1328624970459,51.5746
1328625030459,51.6928
1328625090459,51.5918
1328625150459,51.6562
1328625210459,51.4043
1328625270459,51.5596
1328625330459,51.6669
1328625390459,51.6855
1328625450459,51.5326
1328625510459,51.4667
1328625570459,51.5903
1328625630459,51.6100
1328625690459,51.4532
1328625750459,51.4661
1328625810459,51.5498
1328625870459,51.4092
1328625930459,51.5964
1328625990459,51.5325
1328626050459,51.6957
1328626110459,51.3931
1328626170459,51.6330
1328626230459,51.4316
1328626290459,51.4870
1328626350459,51.5191
1328626410459,51.5444
1328626470459,51.5791
1328626530459,51.6474
1328626590459,51.5746
1328626650459,51.5097
1328626710459,51.6141
1328626770459,51.6138
1328626830471,51.2849
1328626890471,51.6323
1328626950471,51.5567
1328627010471,51.4790
1328627070471,51.6359
1328627130471,51.5163
1328627190471,51.3675
1328627250471,51.5895
1328627310471,51.5962
1328627370471,51.6889
1328627430471,51.7194
1328627490471,51.6622
1328627550471,51.5493
1328627610471,51.6228
1328627670471,51.3865
1328627730471,51.6057
1328627790471,51.5181
1328627850471,51.6007
1328627910471,51.6517
1328627970471,51.6234
1328628030471,51.5480
1328628090471,51.6219
1328628150471,51.5491
1328628210471,51.6218
1328628270471,51.5565
1328628330471,51.6617
1328628390471,51.5593
1328628450471,51.3861
1328628510471,51.5292
1328628570471,51.6021
1328628630471,51.4997
1328628690471,51.6240
1328628750471,51.4369
1328628810471,51.6334
1328628870471,51.5724
1328628930471,51.6302
1328628990471,51.4803
1328629050471,51.5012
1328629110471,51.5434
1328629170471,51.5674
1328629230471,51.5257
1328629290471,51.5071
1328629350471,51.6346
1328629410471,51.5959
1328629470471,51.6424
1328629530471,51.4921
1328629590471,51.5433
1328629650471,51.3701
1328629710471,51.4586
1328629770471,51.3601
1328629830471,51.4396
1328629890471,51.3931
1328629950471,51.5320
1328630010471,51.4593
1328630070471,51.5057
1328630130471,51.4069
1328630190471,51.6328
1328630250471,51.5339
1328630310471,51.5463
1328630370471,51.5393
1328630430482,51.4412
1328630490482,51.5211
1328630550482,51.5218
1328630610482,51.5286
1328630670482,51.5721
1328630730482,51.4281
1328630790482,51.4522
1328630850482,51.2975
1328630910482,51.5480
1328630970482,51.4126
1328631030482,51.4616
1328631090482,51.5254
1328631150482,51.3106
1328631210482,51.5957
1328631270482,51.4792
1328631330482,51.4881
1328631390482,51.5171
1328631450482,51.5128
1328631510482,51.5165
1328631570482,51.5655
1328631630482,51.4509
1328631690482,51.6735
1328631750482,51.5704
1328631810482,51.6549
1328631870482,51.5150
1328631930482,51.5155
1328631990482,51.4944
1328632050482,51.5801
1328632110482,51.5330
1328632170482,51.5457
1328632230482,51.5718
1328632290482,51.4529
1328632350482,51.5592
1328632410482,51.4854
1328632470482,51.6470
1328632530482,51.5392
1328632590482,51.6514
1328632650482,51.6062
1328632710482,51.5658
1328632770482,51.5892
1328632830482,51.5278
1328632890482,51.5446
1328632950482,51.6637
1328633010482,51.6983
1328633070482,51.5695
1328633130482,51.5141
1328633190482,51.7202
1328633250482,51.5175
1328633310482,51.5252
1328633370482,51.5752
1328633430482,51.6650
1328633490482,51.7163
1328633550482,51.5509
1328633610482,51.7152
1328633670482,51.4890
1328633730482,51.5843
1328633790482,51.6321
1328633850482,51.6495
1328633910482,51.4606
1328633970482,51.6904
1328634030494,51.6727
1328634090494,51.5002
1328634150494,51.4338
1328634210494,51.6966
1328634270494,51.6648
1328634330494,51.6108
1328634390494,51.5941
1328634450494,51.5622
1328634510494,51.5928
1328634570494,51.4379
1328634630494,51.6786
1328634690494,51.6632
1328634750494,51.6071
1328634810494,51.4222
1328634870494,51.5338
1328634930494,51.5107
1328634990494,51.5527
1328635050494,51.5213
1328635110494,51.4830
1328635170494,51.4194
1328635230494,51.6479
1328635290494,51.4672
1328635350494,51.6053
1328635410494,51.6353
1328635470494,51.6310
1328635530494,51.4408
1328635590494,51.5677
1328635650494,51.5663
1328635710494,51.7110
1328635770494,51.6853
1328635830494,51.7565
1328635890494,51.6693
1328635950494,51.6446
1328636010494,51.5812
1328636070494,51.6157
1328636130494,51.6079
1328636190494,51.7659
1328636250494,51.9784
1328636310494,51.7786
1328636370494,51.7483
1328636430494,51.7452
1328636490494,51.5549
1328636550494,51.6789
1328636610494,51.6299
1328636670494,51.5730
1328636730494,51.4791
1328636790494,51.4061
1328636850494,51.5355
1328636910494,51.4642
1328636970494,51.4899
1328637030494,51.4404
1328637090494,51.4695
1328637150494,51.5176
1328637210494,51.5165
1328637270494,51.3222
1328637330494,51.4128
1328637390494,51.4995
1328637450494,51.3850
1328637510494,51.3936
1328637570494,51.4252
1328637630505,51.3484
1328637690505,51.2624
1328637750505,51.3341
1328637810505,51.4163
1328637870505,51.3016
1328637930505,51.1734
1328637990505,51.1101
1328638050505,51.3750
1328638110505,51.1738
1328638170505,51.1765
1328638230505,51.1894
1328638290505,51.2284
1328638350505,51.2263
1328638410505,51.1877
1328638470505,51.2448
1328638530505,51.2473
1328638590505,51.2410
1328638650505,51.2996